GW2672 Weather Reports


Display with metric or nautical units.
time (UTC)temp
F
wind
direction
speed
MPH
gust
MPH
rain 1hr
in
rain 24hr
in
rain mn
in
humidity
%
barometer
mb
20260510191606 81 24 2.0 5.0 0.00 0.10 0.00 71 1016.1
20260510190100 80 0 0.0 3.0 0.00 0.10 0.00 72 1016.2
20260510184554 80 96 1.0 4.0 0.00 0.10 0.00 74 1016.4
20260510183058 80 151 1.0 4.0 0.00 0.10 0.00 73 1016.5
20260510181606 79 88 1.0 5.0 0.00 0.10 0.00 73 1016.7
20260510180103 80 72 1.0 4.0 0.00 0.10 0.00 74 1016.9
20260510174553 79 40 3.0 6.0 0.00 0.10 0.00 75 1017.1
20260510173054 77 123 4.0 8.0 0.00 0.10 0.00 77 1017.3
20260510171601 77 45 4.0 9.0 0.00 0.10 0.00 78 1017.3
20260510170121 76 90 3.0 8.0 0.00 0.10 0.00 78 1017.6
20260510164604 75 360 3.0 11.0 0.00 0.22 0.00 81 1017.9
20260510163056 75 5 4.0 12.0 0.00 0.22 0.00 82 1017.8
20260510161558 74 5 4.0 9.0 0.00 0.22 0.00 82 1017.7
20260510160057 74 340 4.0 9.0 0.00 0.22 0.00 83 1017.6
20260510154600 73 55 2.0 8.0 0.00 0.54 0.00 86 1017.8
20260510153056 71 342 3.0 7.0 0.00 0.54 0.00 88 1017.8
20260510151559 70 335 2.0 5.0 0.00 0.54 0.00 90 1017.7
20260510144612 68 355 3.0 5.0 0.00 0.91 0.00 94 1018.1
20260510143056 68 19 2.0 7.0 0.00 0.91 0.00 95 1018.0
20260510141601 67 31 2.0 4.0 0.00 0.91 0.00 96 1017.8
20260510140054 67 39 2.0 5.0 0.00 0.91 0.00 96 1017.7
20260510134557 66 19 3.0 6.0 0.00 0.98 0.00 96 1017.7
20260510133100 66 44 4.0 5.0 0.00 0.98 0.00 96 1017.4
20260510131601 66 19 1.0 4.0 0.00 0.98 0.00 96 1017.4
20260510130100 65 24 2.0 4.0 0.00 0.98 0.00 96 1017.2
20260510124612 65 11 2.0 5.0 0.00 0.99 0.00 96 1017.1
20260510123128 65 336 3.0 6.0 0.00 0.99 0.00 96 1016.9
20260510121556 64 24 4.0 6.0 0.00 0.99 0.00 96 1016.6
20260510120054 64 51 3.0 5.0 0.00 0.99 0.00 96 1016.3
20260510114601 64 67 2.0 4.0 0.00 1.00 0.00 96 1016.0
20260510113055 64 74 3.0 6.0 0.00 1.00 0.00 96 1015.6
20260510111556 64 108 1.0 3.0 0.00 1.00 0.00 96 1015.5
20260510110054 64 66 1.0 3.0 0.00 1.00 0.00 96 1015.1
20260510104558 64 0 1.0 3.0 0.00 1.02 0.00 96 1015.1
20260510103055 64 38 2.0 3.0 0.00 1.02 0.00 96 1014.8
20260510101554 64 54 2.0 4.0 0.00 1.02 0.00 96 1014.5
20260510100100 64 30 2.0 4.0 0.00 1.02 0.00 96 1014.4
20260510094555 64 331 1.0 4.0 0.00 1.04 0.00 95 1014.4
20260510093102 64 352 2.0 5.0 0.00 1.04 0.00 95 1014.3
20260510091558 64 331 3.0 5.0 0.00 1.04 0.00 96 1014.2
20260510090056 64 337 2.0 3.0 0.00 1.04 0.00 95 1014.0
20260510084556 64 0 0.0 3.0 0.00 1.05 0.00 95 1013.8
20260510083105 64 320 1.0 4.0 0.00 1.05 0.00 95 1013.7
20260510081554 64 350 2.0 4.0 0.00 1.05 0.00 95 1013.6
20260510080056 65 315 3.0 5.0 0.00 1.05 0.00 95 1013.5
20260510074553 65 348 2.0 3.0 0.00 1.13 0.00 95 1013.4
20260510073106 65 63 1.0 3.0 0.00 1.13 0.00 95 1013.3
20260510071557 65 0 0.0 0.0 0.00 1.13 0.00 95 1013.6
20260510070058 65 0 0.0 0.0 0.00 1.13 0.00 95 1013.6
20260510064559 65 0 0.0 2.0 0.00 1.13 0.00 95 1013.6
20260510063056 65 112 1.0 3.0 0.00 1.13 0.00 95 1013.3
20260510061600 65 101 2.0 3.0 0.00 1.13 0.00 95 1013.1
20260510060057 65 0 0.0 2.0 0.00 1.13 0.00 95 1013.4
20260510054557 65 29 2.0 3.0 0.00 1.13 0.00 94 1013.4
20260510053053 66 0 0.0 3.0 0.00 1.13 0.00 95 1013.5
20260510051602 66 121 3.0 9.0 0.00 1.13 0.00 95 1013.4
20260510050059 66 103 4.0 7.0 0.00 1.13 0.00 95 1013.3
20260510044555 66 355 3.0 8.0 0.01 1.13 1.13 95 1014.0
20260510043055 66 334 4.0 6.0 0.01 1.13 1.13 94 1014.3
20260510041554 66 308 2.0 3.0 0.01 1.13 1.13 95 1014.4
20260510040053 67 293 2.0 5.0 0.01 1.13 1.13 95 1014.7
20260510034554 67 321 0.0 4.0 0.00 1.12 1.12 95 1014.8
20260510033119 67 96 2.0 4.0 0.00 1.12 1.12 94 1013.9
20260510031556 67 90 1.0 4.0 0.00 1.12 1.12 94 1014.0
20260510030056 67 329 0.0 2.0 0.00 1.12 1.12 94 1014.3
20260510024604 67 0 0.0 3.0 0.00 1.14 1.12 94 1014.3
20260510023055 67 100 1.0 6.0 0.00 1.14 1.12 94 1013.7
20260510021557 67 105 2.0 7.0 0.00 1.14 1.12 94 1013.5
20260510020056 67 88 2.0 4.0 0.00 1.14 1.12 94 1013.6
20260510014557 67 0 0.0 2.0 0.00 1.16 1.12 94 1014.1
20260510013055 67 0 0.0 4.0 0.00 1.16 1.12 94 1013.7
20260510011555 67 88 3.0 5.0 0.00 1.16 1.12 94 1013.4
20260510010054 67 103 0.0 3.0 0.01 1.16 1.12 94 1013.6
20260510004553 67 355 2.0 5.0 0.01 1.16 1.12 94 1013.7
20260510003103 67 0 0.0 7.0 0.01 1.16 1.12 93 1013.9
20260510001554 68 277 2.0 4.0 0.01 1.16 1.12 94 1013.9
20260510000058 68 61 2.0 4.0 0.01 1.16 1.11 94 1013.0
20260509234604 68 72 2.0 6.0 0.02 1.16 1.11 93 1012.4
20260509233057 68 264 0.0 0.0 0.04 1.16 1.11 93 1012.7
20260509231601 68 0 0.0 7.0 0.06 1.16 1.11 93 1013.0
20260509230103 68 263 3.0 8.0 0.06 1.16 1.10 93 1013.2
20260509224603 68 117 1.0 3.0 0.05 1.23 1.09 93 1012.0
20260509223102 68 107 4.0 10.0 0.03 1.21 1.07 92 1012.0
20260509221559 68 100 0.0 3.0 0.02 1.19 1.04 92 1012.8
20260509220054 68 0 0.0 3.0 0.01 1.17 1.04 92 1012.7
20260509214557 68 100 1.0 3.0 0.01 1.40 1.04 92 1012.5
20260509213108 68 53 2.0 3.0 0.01 1.40 1.04 92 1012.9
20260509211557 68 170 1.0 4.0 0.00 1.39 1.03 92 1012.7
20260509210105 68 199 0.0 2.0 0.00 1.39 1.03 92 1012.7
20260509204601 68 159 0.0 6.0 0.00 2.17 1.03 92 1011.8
20260509203108 68 246 0.0 6.0 0.00 2.17 1.03 92 1012.6
20260509201553 68 211 2.0 7.0 0.00 2.17 1.03 92 1012.4
20260509200053 68 290 2.0 7.0 0.00 2.17 1.03 92 1012.1
20260509194555 68 313 3.0 8.0 0.00 2.20 1.03 92 1011.4
20260509193054 68 294 7.0 15.0 0.00 2.20 1.03 92 1012.0